Temp
68 67 67 67 66 63 60 59 58 57 56 55 53 53 52 50 49 46 44 44 43 41
67 67 67 66 65 65 62 58 55 55 54 53 51 51 50 46 44 44 42 41 40 39
66 66 67 65 64 64 61 54 52 51 51 51 50 48 46 44 42 42 40 40 39 38
62 62 61 64 62 61 54 52 49 49 49 49 48 48 45 42 42 40 39 38 38 37
58 57 58 59 56 53 51 50 49 48 49 49 47 46 44 43 42 40 38 38 38 37
54 55 55 53 50 49 48 48 47 48 48 47 45 45 45 44 41 39 39 38 37 37
49 50 50 49 47 46 45 45 45 45 46 45 44 44 43 41 40 38 38 38 38 37
47 47 46 44 44 42 42 43 43 42 42 42 42 43 41 41 38 38 36 36 37 37
44 41 38 37 37 38 37 39 38 38 39 39 42 42 41 39 38 37 35 34 34 35
37 37 36 35 36 35 35 36 36 36 37 36 37 41 41 39 37 36 35 34 33 33
35 34 33 33 33 34 34 35 36 35 36 36 36 40 40 38 35 34 32 33 33 33
35 32 32 33 33 33 33 33 34 35 34 35 34 40 39 37 33 33 32 33 33 33
34 32 31 31 33 32 33 33 32 32 33 33 33 38 39 36 32 31 31 31 32 33
30 29 30 29 29 30 32 31 32 32 32 33 34 35 38 38 33 32 31 31 31 32
MSLP
1016.88 1017.31 1017.79 1018.07 1018.50 1019.00 1019.60 1020.02 1020.16 1020.67 1021.04 1021.66 1022.23 1022.83 1023.24 1023.92 1024.29 1024.93 1025.69 1025.90 1026.51 1026.95
1016.17 1016.61 1016.83 1017.25 1017.71 1018.18 1018.68 1019.29 1019.81 1020.18 1020.71 1021.14 1021.75 1022.28 1023.00 1023.88 1024.31 1024.70 1025.56 1026.01 1026.63 1026.96
1015.23 1015.63 1016.17 1016.80 1017.12 1017.38 1017.87 1018.70 1019.45 1020.12 1020.59 1020.99 1021.41 1022.06 1022.78 1023.70 1024.49 1024.70 1025.46 1026.09 1026.53 1027.06
1014.76 1015.21 1015.76 1016.28 1016.67 1017.06 1017.64 1018.40 1019.27 1019.85 1020.54 1021.03 1021.46 1021.93 1022.52 1023.49 1024.01 1024.51 1025.24 1025.77 1026.28 1027.09
1014.30 1014.70 1015.04 1015.25 1015.99 1016.88 1017.56 1018.17 1018.97 1019.73 1020.40 1020.81 1021.20 1021.41 1022.44 1022.96 1023.35 1024.33 1024.81 1025.37 1026.04 1026.71
1013.98 1014.27 1014.88 1015.26 1015.74 1016.41 1017.07 1017.78 1018.66 1019.47 1019.98 1020.71 1020.57 1021.92 1021.87 1022.37 1023.04 1023.81 1024.31 1024.75 1025.35 1026.10
1014.55 1014.47 1014.82 1015.36 1016.12 1016.84 1017.35 1017.86 1018.28 1018.94 1019.61 1019.99 1020.74 1020.83 1021.95 1022.45 1022.97 1023.80 1024.24 1024.84 1025.13 1025.65
1015.02 1015.21 1015.44 1015.85 1016.07 1016.39 1017.15 1017.86 1018.58 1019.19 1019.65 1020.19 1020.40 1021.31 1021.02 1022.42 1022.57 1023.41 1023.95 1024.73 1025.01 1025.38
1015.21 1015.77 1016.37 1016.54 1016.87 1017.08 1017.26 1017.50 1018.17 1018.76 1019.17 1019.83 1020.21 1020.27 1021.49 1021.85 1022.65 1023.45 1024.04 1024.61 1025.14 1025.34
1015.98 1016.27 1016.51 1016.93 1017.36 1017.54 1017.97 1017.85 1017.99 1018.53 1019.09 1019.59 1020.07 1020.74 1021.50 1021.78 1022.79 1023.07 1023.92 1024.11 1024.89 1025.19
1016.47 1016.76 1016.95 1017.16 1017.39 1017.47 1017.62 1017.78 1018.02 1018.32 1018.46 1018.95 1019.95 1020.55 1020.81 1021.70 1022.07 1022.72 1023.68 1023.50 1024.48 1024.92
1016.49 1016.82 1017.07 1017.14 1017.55 1017.86 1018.30 1018.34 1018.08 1018.43 1018.68 1018.71 1019.15 1020.05 1020.83 1021.49 1022.13 1022.49 1023.36 1023.88 1024.59 1024.82
1016.36 1016.72 1017.01 1017.00 1017.33 1017.77 1017.90 1018.20 1018.43 1018.60 1019.06 1019.42 1019.78 1020.45 1021.13 1021.61 1022.01 1022.57 1023.13 1023.82 1024.50 1024.57
1016.74 1017.12 1017.18 1017.24 1017.45 1017.82 1018.08 1018.27 1018.35 1018.24 1018.79 1019.19 1019.71 1020.46 1020.87 1021.27 1021.42 1022.02 1022.69 1023.15 1023.68 1024.11
Wind_Speed
17 10 12 12 9 9 9 9 9 11 10 9 8 7 7 5 5 6 5 8 5 4
13 15 13 14 9 10 10 7 10 11 11 10 9 9 8 5 6 7 5 6 6 4
13 14 14 9 10 12 10 9 10 10 10 11 10 9 9 6 6 8 5 5 7 5
9 9 7 9 7 7 7 10 9 10 9 10 11 10 9 8 10 10 9 7 8 7
7 7 7 7 7 7 8 8 9 9 9 10 10 13 11 13 12 11 12 11 10 9
7 7 6 6 7 7 8 8 8 9 11 10 13 10 11 12 11 11 11 12 11 11
5 6 8 7 7 6 6 8 9 9 10 9 9 12 9 9 9 9 8 8 9 10
3 4 5 6 7 7 7 6 6 6 6 7 8 7 12 10 10 11 9 7 7 7
6 4 2 4 5 5 5 6 6 7 9 10 7 14 13 12 10 9 9 8 6 7
4 5 6 6 5 5 6 5 8 8 9 8 6 16 15 13 7 8 8 9 9 7
3 4 4 5 5 5 5 8 8 8 8 9 6 18 18 15 9 8 7 9 9 9
6 5 6 5 5 4 3 3 5 5 7 9 9 19 18 15 8 7 7 6 7 8
5 5 6 5 6 3 3 4 4 5 4 4 6 15 16 10 4 6 5 4 6 11
1 1 1 3 2 3 4 5 5 7 6 7 8 9 18 17 7 7 6 7 6 6
Wind_Direction
210 208 208 208 199 190 196 200 190 191 179 171 165 162 153 152 144 143 151 141 137 133
208 212 211 212 201 195 188 183 177 182 181 169 164 160 149 149 154 139 144 137 135 131
212 213 216 209 205 196 182 164 168 175 178 171 165 152 144 145 149 135 135 136 138 139
212 212 203 214 203 185 148 156 168 174 176 176 166 161 151 153 155 148 151 149 149 156
199 185 196 182 153 144 154 161 169 170 175 178 175 163 166 165 164 164 163 164 158 163
177 166 189 165 153 157 156 158 158 174 180 184 166 188 175 168 166 169 171 168 165 169
184 166 165 161 156 153 153 156 164 178 180 179 177 164 164 165 158 163 164 170 168 167
194 169 157 162 167 156 157 165 163 162 154 160 156 175 156 175 157 169 161 167 162 161
159 145 135 128 145 151 156 158 157 167 163 168 178 163 175 156 163 167 159 157 153 142
141 147 164 159 158 166 173 151 162 159 160 163 155 166 167 155 160 156 175 159 169 158
175 192 173 165 179 167 165 178 179 174 169 157 170 170 169 166 155 162 177 158 172 173
191 179 179 174 174 179 167 187 187 179 170 166 165 180 175 164 154 148 164 153 167 170
197 180 193 175 168 158 165 177 147 127 124 130 151 177 176 159 154 159 153 142 172 179
134 186 170 131 133 148 154 154 160 145 144 145 154 182 187 183 169 172 170 176 180 190